ROT8858 LROP-LZKZ

Flight info

Callsign ROT8858
Flight time 1h 11m
Altitude 24000
Route SOKRU DCT EDETA DCT EKRAT DCT LARMU DCT KARIL DCT KEKED
Aircraft DH8D/M-SDE2E3FGRY/H

Departure

Time 2026-05-08 14:36
Airport Bucharest Henri Coandă International Airport (LROP)

Arrival

Time 2026-05-08 15:48
Airport Košice International Airport (LZKZ)
Time Latitude Longitude Altitude Speed Heading
2026-05-08 13:53 44.56883 26.08190 320 ft 0 kts 354°
2026-05-08 14:25 44.56886 26.08189 320 ft 1 kts 354°
2026-05-08 14:25 44.56913 26.08186 320 ft 3 kts 355°
2026-05-08 14:25 44.56933 26.08184 320 ft 3 kts
2026-05-08 14:25 44.56948 26.08212 320 ft 5 kts 82°
2026-05-08 14:26 44.56952 26.08276 320 ft 7 kts 86°
2026-05-08 14:26 44.56957 26.08348 320 ft 7 kts 75°
2026-05-08 14:26 44.57005 26.08385 320 ft 9 kts 354°
2026-05-08 14:26 44.57078 26.08375 320 ft 11 kts 354°
2026-05-08 14:27 44.57161 26.08363 320 ft 12 kts 354°
2026-05-08 14:27 44.57224 26.08374 320 ft 9 kts 55°
2026-05-08 14:27 44.57235 26.08470 320 ft 10 kts 71°
2026-05-08 14:27 44.57304 26.08491 320 ft 11 kts 354°
2026-05-08 14:28 44.57382 26.08480 320 ft 10 kts 354°
2026-05-08 14:28 44.57453 26.08472 320 ft 10 kts
2026-05-08 14:28 44.57499 26.08544 320 ft 11 kts 83°
2026-05-08 14:28 44.57507 26.08660 320 ft 12 kts 85°
2026-05-08 14:29 44.57515 26.08785 320 ft 13 kts 85°
2026-05-08 14:29 44.57523 26.08917 320 ft 14 kts 83°
2026-05-08 14:29 44.57539 26.09069 320 ft 17 kts 83°
2026-05-08 14:29 44.57552 26.09252 320 ft 19 kts 84°
2026-05-08 14:30 44.57567 26.09454 320 ft 21 kts 83°
2026-05-08 14:30 44.57584 26.09668 320 ft 22 kts 84°
2026-05-08 14:30 44.57601 26.09891 320 ft 22 kts 84°
2026-05-08 14:30 44.57617 26.10096 320 ft 20 kts 84°
2026-05-08 14:31 44.57630 26.10289 320 ft 19 kts 84°
2026-05-08 14:31 44.57644 26.10474 320 ft 18 kts 83°
2026-05-08 14:31 44.57658 26.10650 319 ft 17 kts 84°
2026-05-08 14:32 44.57683 26.10990 320 ft 17 kts 84°
2026-05-08 14:32 44.57697 26.11154 319 ft 16 kts 83°
2026-05-08 14:32 44.57711 26.11316 319 ft 16 kts 83°
2026-05-08 14:32 44.57723 26.11478 319 ft 16 kts 85°
2026-05-08 14:33 44.57733 26.11642 319 ft 17 kts 84°
2026-05-08 14:33 44.57747 26.11828 319 ft 20 kts 84°
2026-05-08 14:33 44.57763 26.12045 319 ft 23 kts 84°
2026-05-08 14:33 44.57780 26.12251 319 ft 19 kts 83°
2026-05-08 14:34 44.57793 26.12418 319 ft 15 kts 84°
2026-05-08 14:34 44.57805 26.12583 319 ft 19 kts 84°
2026-05-08 14:34 44.57818 26.12768 319 ft 17 kts 83°
2026-05-08 14:34 44.57843 26.12871 319 ft 3 kts 37°
2026-05-08 14:35 44.57875 26.12864 319 ft 6 kts 327°
2026-05-08 14:35 44.57917 26.12818 319 ft 8 kts 324°
2026-05-08 14:35 44.57973 26.12761 319 ft 4 kts 319°
2026-05-08 14:35 44.57987 26.12702 319 ft 13 kts 265°
2026-05-08 14:36 44.57978 26.12415 320 ft 60 kts 266°
2026-05-08 14:36 44.57891 26.11444 320 ft 136 kts 264°
2026-05-08 14:36 44.57795 26.09925 473 ft 165 kts 265°
2026-05-08 14:36 44.57671 26.08274 942 ft 174 kts 264°
2026-05-08 14:37 44.57538 26.06616 1629 ft 172 kts 262°
2026-05-08 14:37 44.57422 26.04904 2176 ft 180 kts 263°
2026-05-08 14:37 44.57220 26.03193 2778 ft 181 kts 259°
2026-05-08 14:37 44.57037 26.01377 3176 ft 197 kts 261°
2026-05-08 14:38 44.56884 25.99376 3567 ft 206 kts 264°
2026-05-08 14:38 44.56770 25.97404 4173 ft 205 kts 264°
2026-05-08 14:38 44.56643 25.95454 4763 ft 202 kts 264°
2026-05-08 14:38 44.56513 25.93487 5312 ft 203 kts 264°
2026-05-08 14:39 44.56377 25.91518 5849 ft 203 kts 265°
2026-05-08 14:39 44.56237 25.89532 6390 ft 203 kts 265°
2026-05-08 14:39 44.56172 25.87559 6902 ft 203 kts 279°
2026-05-08 14:39 44.56885 25.85907 7272 ft 206 kts 326°
2026-05-08 14:40 44.58294 25.85531 7600 ft 212 kts 11°
2026-05-08 14:40 44.59720 25.86148 8043 ft 214 kts 14°
2026-05-08 14:40 44.61158 25.86602 8502 ft 214 kts
2026-05-08 14:40 44.62648 25.86885 8956 ft 215 kts
2026-05-08 14:41 44.64151 25.87037 9393 ft 216 kts
2026-05-08 14:41 44.65676 25.87087 9814 ft 218 kts 358°
2026-05-08 14:41 44.67192 25.87062 10189 ft 222 kts 357°
2026-05-08 14:41 44.68831 25.86969 10221 ft 243 kts 355°
2026-05-08 14:42 44.70549 25.86814 10559 ft 248 kts 354°
2026-05-08 14:42 44.72262 25.86632 10967 ft 249 kts 354°
2026-05-08 14:42 44.73973 25.86197 11329 ft 249 kts 335°
2026-05-08 14:42 44.75265 25.84642 11664 ft 246 kts 305°
2026-05-08 14:43 44.76239 25.82640 12055 ft 248 kts 303°
2026-05-08 14:43 44.77205 25.80600 12442 ft 250 kts 303°
2026-05-08 14:43 44.78169 25.78552 12801 ft 251 kts 302°
2026-05-08 14:43 44.79140 25.76481 13190 ft 252 kts 303°
2026-05-08 14:44 44.80103 25.74425 13542 ft 254 kts 302°
2026-05-08 14:44 44.81079 25.72339 13852 ft 257 kts 302°
2026-05-08 14:44 44.82054 25.70253 14191 ft 257 kts 302°
2026-05-08 14:44 44.83062 25.68093 14504 ft 260 kts 302°
2026-05-08 14:45 44.84056 25.65961 14815 ft 262 kts 302°
2026-05-08 14:45 44.85066 25.63794 15137 ft 263 kts 302°
2026-05-08 14:45 44.86071 25.61635 15443 ft 264 kts 302°
2026-05-08 14:45 44.87078 25.59471 15721 ft 266 kts 302°
2026-05-08 14:46 44.88092 25.57290 16000 ft 268 kts 302°
2026-05-08 14:46 44.89111 25.55096 16299 ft 269 kts 302°
2026-05-08 14:46 44.90140 25.52879 16583 ft 270 kts 302°
2026-05-08 14:46 44.91157 25.50686 16874 ft 271 kts 302°
2026-05-08 14:47 44.92192 25.48452 17150 ft 272 kts 302°
2026-05-08 14:47 44.93234 25.46203 17426 ft 273 kts 302°
2026-05-08 14:47 44.94270 25.43963 17684 ft 274 kts 302°
2026-05-08 14:47 44.95305 25.41723 17931 ft 275 kts 302°
2026-05-08 14:48 44.96355 25.39448 18146 ft 277 kts 302°
2026-05-08 14:48 44.97411 25.37160 18384 ft 279 kts 302°
2026-05-08 14:48 44.98473 25.34866 18594 ft 280 kts 303°
2026-05-08 14:48 44.99822 25.32899 18750 ft 284 kts 328°
2026-05-08 14:49 45.01625 25.31814 18947 ft 285 kts 339°
2026-05-08 14:49 45.03506 25.30871 19197 ft 286 kts 339°
2026-05-08 14:49 45.05392 25.29926 19415 ft 287 kts 339°
2026-05-08 14:49 45.07249 25.28994 19630 ft 288 kts 339°
2026-05-08 14:50 45.09132 25.28045 19866 ft 287 kts 339°
2026-05-08 14:50 45.11011 25.27095 20079 ft 287 kts 339°
2026-05-08 14:50 45.12902 25.26136 20243 ft 288 kts 339°
2026-05-08 14:50 45.14797 25.25174 20429 ft 289 kts 339°
2026-05-08 14:51 45.16669 25.24222 20572 ft 290 kts 339°
2026-05-08 14:51 45.18584 25.23245 20716 ft 292 kts 339°
2026-05-08 14:51 45.20502 25.22268 20895 ft 292 kts 339°
2026-05-08 14:51 45.22406 25.21296 21037 ft 294 kts 339°
2026-05-08 14:52 45.24328 25.20314 21184 ft 294 kts 339°
2026-05-08 14:52 45.28200 25.18332 21465 ft 296 kts 339°
2026-05-08 14:52 45.30136 25.17339 21610 ft 296 kts 339°
2026-05-08 14:53 45.32068 25.16349 21761 ft 296 kts 339°
2026-05-08 14:53 45.33998 25.15358 21921 ft 296 kts 338°
2026-05-08 14:53 45.35930 25.14366 22072 ft 295 kts 339°
2026-05-08 14:53 45.37848 25.13381 22211 ft 295 kts 338°
2026-05-08 14:54 45.39799 25.12377 22340 ft 296 kts 338°
2026-05-08 14:54 45.41723 25.11387 22460 ft 296 kts 338°
2026-05-08 14:54 45.43651 25.10394 22586 ft 297 kts 338°
2026-05-08 14:54 45.45595 25.09391 22703 ft 297 kts 338°
2026-05-08 14:55 45.47540 25.08388 22777 ft 299 kts 338°
2026-05-08 14:55 45.49500 25.07376 22843 ft 301 kts 338°
2026-05-08 14:55 45.51470 25.06358 22917 ft 302 kts 338°
2026-05-08 14:55 45.53448 25.05335 22989 ft 303 kts 339°
2026-05-08 14:56 45.55418 25.04315 23104 ft 302 kts 338°
2026-05-08 14:56 45.57407 25.03285 23201 ft 302 kts 338°
2026-05-08 14:56 45.59379 25.02264 23303 ft 302 kts 338°
2026-05-08 14:56 45.61341 25.01247 23406 ft 302 kts 338°
2026-05-08 14:57 45.63306 25.00227 23500 ft 302 kts 338°
2026-05-08 14:57 45.65288 24.99198 23582 ft 302 kts 338°
2026-05-08 14:57 45.67256 24.98175 23674 ft 301 kts 338°
2026-05-08 14:57 45.69209 24.97159 23769 ft 301 kts 338°
2026-05-08 14:58 45.71180 24.96133 23825 ft 302 kts 338°
2026-05-08 14:58 45.73171 24.95096 23877 ft 303 kts 338°
2026-05-08 14:58 45.75145 24.94067 23927 ft 304 kts 338°
2026-05-08 14:58 45.77092 24.92874 23973 ft 302 kts 326°
2026-05-08 14:59 45.78754 24.91105 24016 ft 301 kts 318°
2026-05-08 14:59 45.81489 24.87890 24022 ft 307 kts 318°
2026-05-08 14:59 45.83695 24.85298 24019 ft 312 kts 318°
2026-05-08 15:00 45.85397 24.83303 24018 ft 314 kts 318°
2026-05-08 15:00 45.87071 24.81343 24017 ft 317 kts 318°
2026-05-08 15:00 45.88802 24.79315 24013 ft 319 kts 318°
2026-05-08 15:00 45.90514 24.77311 24010 ft 321 kts 319°
2026-05-08 15:01 45.92254 24.75275 24014 ft 322 kts 319°
2026-05-08 15:01 45.93982 24.73251 24016 ft 323 kts 318°
2026-05-08 15:01 45.95717 24.71218 24015 ft 324 kts 318°
2026-05-08 15:01 45.97467 24.69167 24011 ft 325 kts 318°
2026-05-08 15:02 45.99219 24.67111 24013 ft 326 kts 318°
2026-05-08 15:02 46.00986 24.65037 24015 ft 326 kts 318°
2026-05-08 15:02 46.02739 24.62977 24014 ft 326 kts 318°
2026-05-08 15:02 46.04499 24.60906 24013 ft 327 kts 318°
2026-05-08 15:03 46.06249 24.58847 24016 ft 327 kts 318°
2026-05-08 15:03 46.08003 24.56781 24019 ft 327 kts 318°
2026-05-08 15:03 46.09763 24.54708 24020 ft 327 kts 318°
2026-05-08 15:03 46.11514 24.52642 24022 ft 326 kts 317°
2026-05-08 15:04 46.13262 24.50577 24019 ft 327 kts 317°
2026-05-08 15:04 46.15016 24.48505 24023 ft 327 kts 317°
2026-05-08 15:04 46.16785 24.46412 24022 ft 327 kts 317°
2026-05-08 15:04 46.18537 24.44337 24022 ft 326 kts 317°
2026-05-08 15:05 46.20274 24.42280 24023 ft 326 kts 317°
2026-05-08 15:05 46.22012 24.40218 24022 ft 326 kts 317°
2026-05-08 15:05 46.23766 24.38136 24019 ft 326 kts 317°
2026-05-08 15:05 46.25514 24.36061 24015 ft 326 kts 317°
2026-05-08 15:06 46.27240 24.34008 24020 ft 325 kts 317°
2026-05-08 15:06 46.28981 24.31937 24022 ft 325 kts 316°
2026-05-08 15:06 46.30738 24.29845 24022 ft 325 kts 316°
2026-05-08 15:06 46.32480 24.27769 24019 ft 325 kts 316°
2026-05-08 15:07 46.34209 24.25707 24014 ft 324 kts 316°
2026-05-08 15:07 46.35947 24.23631 24013 ft 324 kts 316°
2026-05-08 15:07 46.37685 24.21554 24012 ft 324 kts 316°
2026-05-08 15:07 46.39414 24.19485 24006 ft 324 kts 316°
2026-05-08 15:08 46.41145 24.17413 24007 ft 323 kts 316°
2026-05-08 15:08 46.42287 24.16045 24007 ft 323 kts 316°
2026-05-08 15:08 46.44614 24.13255 24004 ft 323 kts 316°
2026-05-08 15:08 46.46315 24.11194 23997 ft 322 kts 316°
2026-05-08 15:09 46.48035 24.09101 23998 ft 322 kts 316°
2026-05-08 15:09 46.49731 24.07036 23999 ft 321 kts 316°
2026-05-08 15:09 46.51432 24.04962 24002 ft 321 kts 316°
2026-05-08 15:09 46.53163 24.02852 24004 ft 321 kts 316°
2026-05-08 15:10 46.54852 24.00791 24005 ft 321 kts 316°
2026-05-08 15:10 46.56570 23.98693 24008 ft 321 kts 316°
2026-05-08 15:10 46.58274 23.96611 24008 ft 320 kts 316°
2026-05-08 15:10 46.59963 23.94546 24007 ft 319 kts 316°
2026-05-08 15:11 46.61655 23.92475 24012 ft 319 kts 316°
2026-05-08 15:11 46.63355 23.90392 24014 ft 319 kts 316°
2026-05-08 15:11 46.65046 23.88318 24017 ft 319 kts 316°
2026-05-08 15:11 46.66728 23.86255 24015 ft 319 kts 316°
2026-05-08 15:12 46.68428 23.84168 24016 ft 319 kts 316°
2026-05-08 15:12 46.70124 23.82083 24018 ft 319 kts 316°
2026-05-08 15:12 46.71819 23.79998 24018 ft 320 kts 315°
2026-05-08 15:12 46.73506 23.77921 24023 ft 320 kts 315°
2026-05-08 15:13 46.75201 23.75831 24022 ft 319 kts 315°
2026-05-08 15:13 46.76915 23.73719 24022 ft 320 kts 315°
2026-05-08 15:13 46.78591 23.71648 24021 ft 320 kts 316°
2026-05-08 15:13 46.80300 23.69538 24021 ft 320 kts 316°
2026-05-08 15:14 46.81987 23.67453 24024 ft 321 kts 316°
2026-05-08 15:14 46.83682 23.65355 24025 ft 321 kts 315°
2026-05-08 15:14 46.85403 23.63224 24023 ft 320 kts 316°
2026-05-08 15:14 46.87094 23.61127 24023 ft 321 kts 315°
2026-05-08 15:15 46.88779 23.59037 24021 ft 321 kts 316°
2026-05-08 15:15 46.90483 23.56922 24022 ft 321 kts 315°
2026-05-08 15:15 46.92176 23.54817 24023 ft 321 kts 315°
2026-05-08 15:15 46.93870 23.52711 24021 ft 321 kts 316°
2026-05-08 15:16 46.95570 23.50596 24027 ft 321 kts 315°
2026-05-08 15:16 46.97273 23.48472 24025 ft 321 kts 315°
2026-05-08 15:16 46.98969 23.46358 24029 ft 321 kts 315°
2026-05-08 15:16 47.00672 23.44233 24027 ft 320 kts 315°
2026-05-08 15:17 47.02361 23.42123 24029 ft 320 kts 315°
2026-05-08 15:17 47.04058 23.40001 24022 ft 320 kts 315°
2026-05-08 15:17 47.05743 23.37892 24030 ft 319 kts 315°
2026-05-08 15:17 47.07429 23.35780 24024 ft 319 kts 315°
2026-05-08 15:18 47.09101 23.33684 24028 ft 319 kts 315°
2026-05-08 15:18 47.10778 23.31581 24028 ft 319 kts 315°
2026-05-08 15:18 47.12459 23.29469 24023 ft 319 kts 315°
2026-05-08 15:18 47.14155 23.27338 24029 ft 319 kts 315°
2026-05-08 15:19 47.15847 23.25209 24023 ft 319 kts 315°
2026-05-08 15:19 47.17511 23.23115 24020 ft 319 kts 315°
2026-05-08 15:19 47.19197 23.20989 24031 ft 320 kts 315°
2026-05-08 15:19 47.20890 23.18854 24021 ft 320 kts 314°
2026-05-08 15:20 47.22583 23.16718 24024 ft 320 kts 315°
2026-05-08 15:20 47.24247 23.14616 24030 ft 320 kts 315°
2026-05-08 15:20 47.25938 23.12478 24025 ft 320 kts 315°
2026-05-08 15:20 47.27638 23.10337 24025 ft 320 kts 315°
2026-05-08 15:21 47.29331 23.08204 24026 ft 320 kts 315°
2026-05-08 15:21 47.31005 23.06094 24036 ft 319 kts 315°
2026-05-08 15:21 47.32691 23.03967 24031 ft 319 kts 315°
2026-05-08 15:21 47.34372 23.01844 24029 ft 319 kts 315°
2026-05-08 15:22 47.36055 22.99717 24029 ft 319 kts 315°
2026-05-08 15:22 47.37729 22.97597 24032 ft 319 kts 315°
2026-05-08 15:22 47.39418 22.95459 24028 ft 319 kts 314°
2026-05-08 15:22 47.41092 22.93337 24031 ft 319 kts 314°
2026-05-08 15:23 47.42785 22.91188 24029 ft 319 kts 315°
2026-05-08 15:23 47.44454 22.89068 24028 ft 320 kts 315°
2026-05-08 15:23 47.46141 22.86923 24032 ft 320 kts 315°
2026-05-08 15:23 47.47831 22.84772 24027 ft 320 kts 315°
2026-05-08 15:24 47.49504 22.82642 24026 ft 320 kts 315°
2026-05-08 15:24 47.51192 22.80490 24030 ft 320 kts 315°
2026-05-08 15:24 47.52887 22.78328 24025 ft 320 kts 315°
2026-05-08 15:24 47.54570 22.76179 24025 ft 320 kts 315°
2026-05-08 15:25 47.56239 22.74047 24022 ft 318 kts 315°
2026-05-08 15:25 47.57896 22.71929 24019 ft 314 kts 315°
2026-05-08 15:25 47.59536 22.69828 23810 ft 317 kts 314°
2026-05-08 15:25 47.61217 22.67667 23415 ft 324 kts 315°
2026-05-08 15:26 47.62940 22.65452 23023 ft 331 kts 315°
2026-05-08 15:26 47.64675 22.63221 22633 ft 336 kts 315°
2026-05-08 15:26 47.66455 22.60933 22232 ft 339 kts 315°
2026-05-08 15:26 47.68227 22.58656 22054 ft 334 kts 315°
2026-05-08 15:27 47.69966 22.56422 21724 ft 333 kts 315°
2026-05-08 15:27 47.71728 22.54150 21305 ft 334 kts 315°
2026-05-08 15:27 47.73474 22.51898 20890 ft 333 kts 316°
2026-05-08 15:27 47.75227 22.49634 20455 ft 332 kts 316°
2026-05-08 15:28 47.76938 22.47423 20026 ft 330 kts 316°
2026-05-08 15:28 47.78675 22.45176 19595 ft 328 kts 316°
2026-05-08 15:28 47.80322 22.42864 19175 ft 325 kts 312°
2026-05-08 15:28 47.81881 22.40457 18756 ft 323 kts 311°
2026-05-08 15:29 47.83421 22.38063 18328 ft 322 kts 311°
2026-05-08 15:29 47.84964 22.35662 17891 ft 322 kts 311°
2026-05-08 15:29 47.86501 22.33271 17417 ft 322 kts 311°
2026-05-08 15:29 47.88081 22.30810 16692 ft 329 kts 311°
2026-05-08 15:30 47.89653 22.28363 16261 ft 326 kts 311°
2026-05-08 15:30 47.91188 22.25977 15901 ft 321 kts 311°
2026-05-08 15:30 47.92706 22.23618 15601 ft 313 kts 311°
2026-05-08 15:30 47.94227 22.21251 15333 ft 307 kts 311°
2026-05-08 15:31 47.95727 22.18913 15069 ft 301 kts 311°
2026-05-08 15:31 47.97204 22.16610 14803 ft 296 kts 311°
2026-05-08 15:31 47.98609 22.14415 14564 ft 293 kts 311°
2026-05-08 15:31 48.00015 22.12217 14316 ft 290 kts 311°
2026-05-08 15:32 48.01389 22.10068 14068 ft 287 kts 311°
2026-05-08 15:32 48.02788 22.07877 13817 ft 285 kts 311°
2026-05-08 15:32 48.04155 22.05735 13579 ft 282 kts 311°
2026-05-08 15:32 48.05500 22.03625 13342 ft 280 kts 311°
2026-05-08 15:33 48.06843 22.01517 13104 ft 280 kts 311°
2026-05-08 15:33 48.08194 21.99396 12865 ft 280 kts 311°
2026-05-08 15:33 48.09544 21.97274 12629 ft 279 kts 312°
2026-05-08 15:33 48.10871 21.95187 12397 ft 277 kts 312°
2026-05-08 15:34 48.12196 21.93101 12164 ft 277 kts 312°
2026-05-08 15:34 48.13517 21.91021 11927 ft 277 kts 312°
2026-05-08 15:34 48.14862 21.88924 11693 ft 278 kts 313°
2026-05-08 15:34 48.16206 21.86857 11464 ft 278 kts 313°
2026-05-08 15:35 48.17531 21.84770 11232 ft 278 kts 312°
2026-05-08 15:35 48.18856 21.82655 10994 ft 277 kts 312°
2026-05-08 15:35 48.20157 21.80582 10768 ft 277 kts 312°
2026-05-08 15:35 48.21466 21.78496 10530 ft 274 kts 312°
2026-05-08 15:36 48.22769 21.76423 10299 ft 270 kts 313°
2026-05-08 15:36 48.23618 21.75073 10152 ft 268 kts 313°
2026-05-08 15:36 48.25320 21.72364 9852 ft 265 kts 313°
2026-05-08 15:36 48.26556 21.70397 9630 ft 260 kts 313°
2026-05-08 15:37 48.27787 21.68438 9416 ft 256 kts 313°
2026-05-08 15:37 48.29006 21.66497 9200 ft 251 kts 313°
2026-05-08 15:37 48.30194 21.64604 8993 ft 248 kts 313°
2026-05-08 15:37 48.31372 21.62727 8784 ft 244 kts 313°
2026-05-08 15:38 48.32514 21.60905 8581 ft 242 kts 313°
2026-05-08 15:38 48.33687 21.59034 8376 ft 239 kts 313°
2026-05-08 15:38 48.34824 21.57218 8175 ft 236 kts 313°
2026-05-08 15:38 48.35921 21.55465 7982 ft 233 kts 313°
2026-05-08 15:39 48.36955 21.53812 7802 ft 230 kts 313°
2026-05-08 15:39 48.38061 21.52043 7607 ft 226 kts 313°
2026-05-08 15:39 48.39125 21.50341 7424 ft 225 kts 313°
2026-05-08 15:39 48.40194 21.48629 7238 ft 224 kts 314°
2026-05-08 15:40 48.41272 21.46901 7051 ft 224 kts 314°
2026-05-08 15:40 48.42332 21.45203 6864 ft 224 kts 314°
2026-05-08 15:40 48.43395 21.43496 6678 ft 224 kts 314°
2026-05-08 15:40 48.44465 21.41778 6486 ft 223 kts 314°
2026-05-08 15:41 48.45525 21.40076 6298 ft 223 kts 314°
2026-05-08 15:41 48.46595 21.38357 6109 ft 223 kts 314°
2026-05-08 15:41 48.47643 21.36670 5911 ft 224 kts 314°
2026-05-08 15:41 48.48709 21.34949 5443 ft 226 kts 313°
2026-05-08 15:42 48.49681 21.33376 5108 ft 220 kts 313°
2026-05-08 15:42 48.50758 21.31635 4832 ft 211 kts 313°
2026-05-08 15:42 48.51626 21.29941 4539 ft 205 kts 292°
2026-05-08 15:42 48.51627 21.27878 4375 ft 198 kts 250°
2026-05-08 15:43 48.51038 21.25993 4221 ft 202 kts 243°
2026-05-08 15:43 48.50386 21.24122 4049 ft 204 kts 243°
2026-05-08 15:43 48.49939 21.22052 3620 ft 217 kts 266°
2026-05-08 15:43 48.49891 21.19727 3234 ft 225 kts 275°
2026-05-08 15:44 48.50536 21.17670 2951 ft 215 kts 320°
2026-05-08 15:44 48.51812 21.16848 2948 ft 194 kts 355°
2026-05-08 15:44 48.53074 21.17314 2817 ft 183 kts 31°
2026-05-08 15:44 48.53934 21.18634 2790 ft 170 kts 57°
2026-05-08 15:45 48.54602 21.20082 2785 ft 170 kts 43°
2026-05-08 15:45 48.55664 21.20778 2705 ft 173 kts
2026-05-08 15:45 48.56882 21.20965 2518 ft 176 kts
2026-05-08 15:45 48.58060 21.21061 2103 ft 166 kts
2026-05-08 15:46 48.59149 21.21374 1915 ft 149 kts 19°
2026-05-08 15:46 48.60116 21.21945 1798 ft 145 kts 18°
2026-05-08 15:46 48.61045 21.22273 1609 ft 136 kts 14°
2026-05-08 15:46 48.61953 21.22582 1466 ft 131 kts 17°
2026-05-08 15:47 48.62861 21.22900 1281 ft 135 kts 14°
2026-05-08 15:47 48.63791 21.23251 1064 ft 140 kts 13°
2026-05-08 15:47 48.64738 21.23576 837 ft 138 kts 12°
2026-05-08 15:47 48.65633 21.23874 741 ft 125 kts 12°
2026-05-08 15:48 48.66497 21.24188 747 ft 30 kts 10°
2026-05-08 15:48 48.66631 21.24229 747 ft 13 kts 11°
2026-05-08 15:48 48.66725 21.24262 748 ft 14 kts 13°
2026-05-08 15:49 48.66834 21.24302 748 ft 17 kts 12°
2026-05-08 15:49 48.66958 21.24346 750 ft 18 kts 13°
2026-05-08 15:49 48.67089 21.24391 749 ft 20 kts 13°
2026-05-08 15:49 48.67205 21.24420 751 ft 9 kts 338°
2026-05-08 15:50 48.67236 21.24348 752 ft 10 kts 282°
2026-05-08 15:50 48.67249 21.24265 752 ft 7 kts 283°
2026-05-08 15:50 48.67265 21.24164 754 ft 11 kts 284°
2026-05-08 15:50 48.67280 21.24063 754 ft 12 kts 282°
2026-05-08 15:51 48.67296 21.23965 755 ft 9 kts 283°
2026-05-08 15:51 48.67304 21.23922 755 ft 4 kts 298°
2026-05-08 15:51 48.67335 21.23892 756 ft 3 kts 333°
2026-05-08 15:51 48.67341 21.23872 756 ft 2 kts 253°
2026-05-08 15:52 48.67330 21.23852 757 ft 1 kts 231°
2026-05-08 15:52 48.67329 21.23851 757 ft 0 kts 234°